Location: Chequamegon National Forest
(46.1070°N, 90.8420°W)
Time: 07:51:39
(UTC-05:00)

ISS - All Passes

Search period start: 03 September 2015 00:00
Search period end: 13 September 2015 00:00
Orbit: 400 x 403 km, 51.6° (Epoch: 01 September)

Date Brightness Start Highest point End Pass type
(mag) Time Alt. Az. Time Alt. Az. Time Alt. Az.
03 Sep - 07:54:56 10° S 07:57:13 18° SE 07:59:34 10° E daylight
03 Sep - 09:30:04 10° WSW 09:33:20 77° NNW 09:36:36 10° ENE daylight
03 Sep - 11:07:06 10° WNW 11:10:04 31° N 11:13:02 10° ENE daylight
03 Sep - 12:43:56 10° WNW 12:47:00 37° NNE 12:50:04 10° E daylight
03 Sep - 14:20:20 10° WNW 14:23:33 59° SSW 14:26:45 10° SE daylight
04 Sep - 07:04:08 10° SE 07:04:09 10° SE 07:04:18 10° SE daylight
04 Sep - 08:36:50 10° SW 08:40:04 64° SSE 08:43:18 10° ENE daylight
04 Sep - 10:13:34 10° W 10:16:38 36° NNW 10:19:42 10° ENE daylight
04 Sep - 11:50:36 10° WNW 11:53:34 31° N 11:56:32 10° ENE daylight
04 Sep - 13:27:01 10° WNW 13:30:17 82° NNE 13:33:32 10° ESE daylight
04 Sep - 15:04:10 10° W 15:06:21 17° SW 15:08:29 10° S daylight
05 Sep - 07:43:50 10° SSW 07:46:51 36° SE 07:49:54 10° ENE daylight
05 Sep - 09:20:03 10° W 09:23:13 47° NNW 09:26:24 10° ENE daylight
05 Sep - 10:57:11 10° WNW 11:00:06 29° N 11:03:02 10° ENE daylight
05 Sep - 12:33:44 10° WNW 12:36:57 53° NNE 12:40:09 10° E daylight
05 Sep - 14:10:22 10° W 14:13:15 29° SW 14:16:06 10° SSE daylight
06 Sep - 06:51:13 10° S 06:53:43 21° SE 06:56:16 10° E daylight
06 Sep - 08:26:37 10° WSW 08:29:53 69° NNW 08:33:08 10° ENE daylight
06 Sep - 10:03:42 10° WNW 10:06:39 30° N 10:09:36 10° ENE daylight
06 Sep - 11:40:28 10° WNW 11:43:34 39° NNE 11:46:39 10° E daylight
06 Sep - 13:16:53 10° WNW 13:20:04 51° SSW 13:23:14 10° SE daylight
07 Sep - 05:59:27 10° SSE 06:00:38 12° SE 06:01:55 10° ESE visible
07 Sep - 07:33:19 10° SW 07:36:35 73° SSE 07:39:51 10° ENE daylight
07 Sep - 09:10:10 10° W 09:13:12 34° N 09:16:14 10° ENE daylight
07 Sep - 10:47:09 10° WNW 10:50:08 32° N 10:53:08 10° ENE daylight
07 Sep - 12:23:32 10° WNW 12:26:49 88° SSW 12:30:05 10° ESE daylight
07 Sep - 14:00:55 10° W 14:02:51 15° SW 14:04:41 10° S daylight
08 Sep - 06:40:16 10° SW 06:43:21 41° SE 06:46:28 10° ENE daylight
08 Sep - 08:16:38 10° W 08:19:47 43° NNW 08:22:56 10° ENE daylight
08 Sep - 09:53:45 10° WNW 09:56:41 29° N 09:59:37 10° ENE daylight
08 Sep - 11:30:16 10° WNW 11:33:30 59° NNE 11:36:44 10° ESE daylight
08 Sep - 13:06:59 10° W 13:09:44 25° SW 13:12:29 10° SSE daylight
09 Sep - 05:47:33 10° SSW 05:50:12 24° SE 05:52:55 10° E visible
09 Sep - 07:23:10 10° WSW 07:26:25 62° NNW 07:29:40 10° ENE daylight
09 Sep - 09:00:17 10° WNW 09:03:13 30° N 09:06:10 10° ENE daylight
09 Sep - 10:37:00 10° WNW 10:40:08 42° NNE 10:43:15 10° E daylight
09 Sep - 12:13:27 10° WNW 12:16:35 44° SW 12:19:42 10° SE daylight
10 Sep - 04:55:28 10° SSE 04:57:07 14° SE 04:58:52 10° ESE visible
10 Sep - 06:29:51 10° WSW 06:33:07 83° SSE 06:36:24 10° ENE daylight
10 Sep - 08:06:46 10° WNW 08:09:46 33° N 08:12:47 10° ENE daylight
10 Sep - 09:43:42 10° WNW 09:46:43 33° N 09:49:44 10° ENE daylight
10 Sep - 11:20:06 10° WNW 11:23:21 79° SSW 11:26:36 10° ESE daylight
10 Sep - 12:57:46 10° WSW 12:59:20 13° SW 13:00:47 10° SSW daylight
11 Sep - 05:36:44 10° SW 05:39:52 47° SE 05:43:03 10° ENE visible
11 Sep - 07:13:14 10° W 07:16:21 40° NNW 07:19:28 10° ENE daylight
11 Sep - 08:50:20 10° WNW 08:53:16 30° N 08:56:13 10° ENE daylight
11 Sep - 10:26:48 10° WNW 10:30:04 65° NNE 10:33:18 10° ESE daylight
11 Sep - 12:03:37 10° W 12:06:15 22° SW 12:08:50 10° SSE daylight
12 Sep - 04:43:55 10° SSW 04:46:43 27° SE 04:49:33 10° E visible
12 Sep - 06:19:45 10° WSW 06:22:58 56° NNW 06:26:13 10° ENE daylight
12 Sep - 07:56:53 10° WNW 07:59:48 29° N 08:02:44 10° ENE daylight
12 Sep - 09:33:32 10° WNW 09:36:42 45° NNE 09:39:51 10° E daylight
12 Sep - 11:10:01 10° WNW 11:13:06 39° SW 11:16:09 10° SSE daylight
